[[{"header":{"parameterUnit":"m.s-1","parameterCategory":1,"la1":30.2991,"la2":30.254,"lo1":-89.0895,"lo2":-89.0444,"dy":0.0017,"dx":0.0017,"nx":28,"ny":28,"refTime":"2025-03-15T09:00:00:Z","depth":0,"parameterNumber":2,"parameterNumberName":"U-component_of_WINDS"},"data":[0,0,0,0,0,0,0,0,0,0,0,0,0,0,0,0,0,0,0,0,0,0,0,0,0,0,0,0,0,0,0,0,0,0,0,0,0,0,0,0,0,0,0,0,0,0,0,0,0,0,0,0,0,0,0,0,0,0,7.4375,7.4375,0,7.4392,7.4392,7.4392,7.4254,7.4251,7.4247,7.4243,7.4259,7.4263,7.4267,0,0,0,0,0,0,0,0,0,0,0,0,0,7.4224,7.4227,7.4375,7.4375,7.4375,7.4392,7.4392,7.4392,7.4255,7.425,7.4246,7.4241,7.4258,7.4263,7.4268,0,0,0,0,0,0,0,0,0,0,0,0,0,7.427,7.4228,7.4375,7.4309,7.4303,7.4392,7.4392,7.4392,7.4256,7.425,7.4245,7.4239,7.4257,7.4262,7.4268,7.442,0,0,7.4287,7.4289,0,0,0,0,0,0,0,0,7.4267,7.4275,7.4318,7.4314,7.4307,7.4315,7.4344,7.4401,7.4258,7.4274,7.4243,7.4236,7.4283,7.4286,7.4302,7.4421,7.4422,7.4287,7.4291,7.4293,7.4295,0,0,0,0,0,0,0,7.4264,7.4274,7.4381,7.4319,7.4313,7.4278,7.4279,7.4354,7.431,7.4272,7.4262,7.4266,7.4278,7.4296,7.4301,7.4422,7.4287,7.4292,7.4296,7.4298,7.4666,7.4672,0,0,0,0,0,0,7.427,7.4272,7.4381,7.4382,7.4273,7.4286,7.4286,7.4318,7.4309,7.4302,7.4271,7.426,7.4289,7.4294,7.4301,7.4478,7.4293,7.4299,7.4302,7.466,7.4668,7.4674,0,0,0,0,0,0,7.4267,7.4281,7.438,7.4324,7.4334,7.4294,7.4332,7.4322,7.4339,7.4308,7.4299,7.4297,7.4285,7.4293,7.4392,7.4476,7.4302,7.4307,7.4653,7.4663,7.4671,7.4833,0,0,0,0,0,0,7.4264,7.4281,7.4338,7.4327,7.4338,7.4471,7.4337,7.4326,7.435,7.4336,7.4331,7.4324,7.4281,7.4383,7.4398,7.4482,7.4312,7.4645,7.4657,7.4668,7.482,7.4847,7.487,0,0,0,0,0,7.4259,7.4383,7.4342,7.4356,7.4409,7.4476,7.4482,7.443,7.4358,7.4415,7.4395,7.4324,7.4465,7.4395,7.441,7.4497,7.464,7.4654,7.4667,7.4809,7.4841,7.4869,0,0,0,0,0,0,7.4405,7.438,7.4334,7.4459,7.4471,7.4453,7.4523,7.4466,7.4499,7.4483,7.4417,7.4417,7.4527,7.4521,7.4443,7.4643,7.454,7.4557,7.4642,7.4673,7.4697,7.4696,7.4317,0,0,0,0,0,7.4452,7.4509,7.4484,7.4596,7.4605,7.4564,7.4591,7.455,7.4559,7.4563,7.455,7.4562,7.4608,7.4641,7.4682,7.4819,7.4816,7.4886,7.4911,7.4932,7.4947,7.5019,7.505,7.472,7.472,7.472,0,0,7.4549,7.4543,7.4583,7.4626,7.463,7.469,7.4569,7.4637,7.4681,7.4573,7.4666,7.4657,7.4666,7.4785,7.4836,7.4784,7.5038,7.495,7.4966,7.497,7.5037,7.5068,7.5096,7.473,7.4728,7.4726,0,0,7.4757,7.4758,7.4851,7.4859,7.4867,7.4839,7.4862,7.4853,7.4843,7.4935,7.4855,7.4907,7.4989,7.4998,7.5013,7.5226,7.5162,7.5242,7.5371,7.5442,7.5468,7.549,7.5565,7.5593,7.5258,7.5258,7.5258,0,7.4876,7.4964,7.4907,7.4981,7.5002,7.4908,7.5002,7.5012,7.5033,7.505,7.4991,7.5092,7.5091,7.5211,7.5263,7.5279,7.5302,7.5241,7.5469,7.5491,7.5511,7.5582,7.561,7.5267,7.5266,7.5265,7.5265,0,7.511,7.5172,7.5247,7.527,7.53,7.5384,7.5339,7.5376,7.5333,7.5311,7.5406,7.5402,7.5441,7.5467,7.5425,7.5581,7.5547,7.548,7.5374,7.5553,7.5618,7.5645,7.5281,7.5278,7.5275,7.5272,0,0,7.5408,7.54,7.5429,7.5438,7.5441,7.5488,7.5568,7.5606,7.5639,7.5658,7.5722,7.5795,7.5732,7.575,7.5709,7.5771,7.5939,7.5695,7.5694,7.574,7.611,7.6159,7.6192,7.5898,7.5903,7.5907,7.6108,0,7.561,7.5746,7.5697,7.5836,7.5892,7.5805,7.5874,7.5884,7.5866,7.5911,7.5891,7.5943,7.5857,7.5867,7.5926,7.5907,7.6012,7.5891,7.5956,7.5959,7.5955,7.6226,7.6279,7.6469,7.6134,7.6138,7.6141,0,7.5863,7.5892,7.6037,7.603,7.6052,7.6116,7.6147,7.6192,7.62,7.6183,7.6204,7.6149,7.6227,7.6123,7.6229,7.6148,7.6172,7.6167,7.6173,7.6175,7.606,7.6235,7.6529,7.6557,7.6181,7.6178,7.6175,0,7.6065,7.6141,7.6237,7.6248,7.6243,7.629,7.629,7.6293,7.6319,7.6347,7.6363,7.64,7.6419,7.6449,7.6406,7.6334,7.6518,7.641,7.6504,7.6506,7.6545,7.6543,7.6846,7.6564,7.6564,7.6563,7.6563,0,7.6294,7.6386,7.6327,7.6387,7.6487,7.643,7.6531,7.6521,7.6525,7.658,7.6507,7.6561,7.6501,7.6549,7.6516,7.6608,7.6618,7.6605,7.6595,7.6611,7.6613,7.6625,7.661,7.6571,7.6569,7.6568,7.6566,0,7.6536,7.6501,7.66,7.6587,7.6587,7.6661,7.665,7.6704,7.6682,7.6753,7.6766,7.6731,7.6784,7.6744,7.6796,7.6773,7.6895,7.6867,7.6892,7.6883,7.698,7.6971,7.73,7.7339,7.7034,7.7037,7.7039,0,7.6684,7.6752,7.6748,7.678,7.6785,7.6838,7.6864,7.6812,7.6842,7.6858,7.6911,7.6957,7.6991,7.708,7.7058,7.7098,7.7069,7.7182,7.7074,7.7088,7.7069,7.7065,7.7071,7.7203,7.7207,7.721,7.7212,0,7.695,7.6929,7.697,7.7007,7.7041,7.7066,7.7086,7.7116,7.7063,7.7101,7.7154,7.7181,7.7235,7.7282,7.7314,7.7313,7.7254,7.7247,7.727,7.7286,7.7297,7.7291,7.6949,7.7239,7.7236,7.7234,7.7233,7.7231,7.7148,7.7205,7.721,7.7259,7.7269,7.7289,7.7339,7.7324,7.7367,7.7406,7.7373,7.7437,7.7444,7.7481,7.7488,7.7537,7.749,7.7525,7.7533,7.7542,7.7555,7.7291,7.7543,7.7542,7.7541,7.7541,7.754,0,7.7409,7.7408,7.7454,7.7484,7.7523,7.7465,7.7484,7.7519,7.7577,7.7589,7.7624,7.7685,7.7731,7.7714,7.7754,7.7797,7.777,7.7809,7.7804,7.7805,7.7595,7.757,7.7829,7.7829,7.7829,7.7829,7.7829,7.7829,7.7549,7.7641,7.7622,7.7719,7.7717,7.7779,7.7795,7.7814,7.7823,7.7895,7.7932,7.7921,7.7922,7.7961,7.8,7.7994,7.8012,7.806,7.8044,7.7848,7.782,7.7792,7.7768,7.8064,7.8065,7.8249,7.825,7.8252]},{"header":{"parameterUnit":"m.s-1","parameterCategory":1,"la1":30.2991,"la2":30.254,"lo1":-89.0895,"lo2":-89.0444,"dy":0.0017,"dx":0.0017,"nx":28,"ny":28,"refTime":"2025-03-15T09:00:00:Z","depth":0,"parameterNumber":3,"parameterNumberName":"V-component_of_WINDS"},"data":[0,0,0,0,0,0,0,0,0,0,0,0,0,0,0,0,0,0,0,0,0,0,0,0,0,0,0,0,0,0,0,0,0,0,0,0,0,0,0,0,0,0,0,0,0,0,0,0,0,0,0,0,0,0,0,0,0,0,3.1133,3.1135,0,3.134,3.1343,3.1345,3.1399,3.1398,3.1396,3.1395,3.1613,3.162,3.1627,0,0,0,0,0,0,0,0,0,0,0,0,0,3.0789,3.0795,3.1133,3.1135,3.1138,3.134,3.1343,3.1346,3.1399,3.1398,3.1396,3.1395,3.1611,3.1619,3.1627,0,0,0,0,0,0,0,0,0,0,0,0,0,3.0962,3.0797,3.1132,3.1189,3.1196,3.1339,3.1343,3.1346,3.14,3.1398,3.1396,3.1394,3.1608,3.1618,3.1629,3.1732,0,0,3.1661,3.1665,0,0,0,0,0,0,0,0,3.0952,3.0974,3.1178,3.1185,3.1194,3.1342,3.1301,3.1476,3.14,3.1323,3.1395,3.1393,3.1525,3.1542,3.1585,3.1742,3.1751,3.1661,3.1668,3.1672,3.1675,0,0,0,0,0,0,0,3.094,3.0966,3.1215,3.1181,3.1191,3.1206,3.1228,3.1335,3.1432,3.1329,3.1334,3.1357,3.1529,3.1575,3.1591,3.1755,3.1661,3.1671,3.1677,3.1681,3.2008,3.201,0,0,0,0,0,0,3.0917,3.0955,3.1209,3.1221,3.1065,3.1214,3.1239,3.1296,3.1431,3.145,3.1358,3.1359,3.1558,3.1578,3.1599,3.1729,3.1672,3.1682,3.1688,3.2005,3.2008,3.2011,0,0,0,0,0,0,3.091,3.0939,3.12,3.109,3.1124,3.1222,3.1286,3.1301,3.1348,3.1453,3.1471,3.1388,3.1557,3.1584,3.1698,3.1737,3.1687,3.1696,3.2003,3.2006,3.201,3.199,0,0,0,0,0,0,3.0899,3.0936,3.0975,3.109,3.113,3.1295,3.1288,3.1307,3.1365,3.1367,3.1485,3.1503,3.1558,3.1682,3.1709,3.1751,3.1705,3.2,3.2004,3.2009,3.1988,3.1993,3.1997,0,0,0,0,0,3.0887,3.0962,3.0977,3.1007,3.118,3.1297,3.132,3.1379,3.1368,3.1409,3.1477,3.1499,3.1728,3.1693,3.1724,3.177,3.1997,3.2003,3.2008,3.1986,3.1992,3.1997,0,0,0,0,0,0,3.0852,3.0978,3.0996,3.111,3.1192,3.1305,3.1359,3.1384,3.1472,3.1471,3.1543,3.1569,3.1679,3.1736,3.1694,3.1877,3.1863,3.1875,3.1836,3.1843,3.1847,3.1831,3.1713,0,0,0,0,0,3.0857,3.0939,3.1046,3.1137,3.1177,3.126,3.1314,3.1352,3.1441,3.1476,3.1553,3.1639,3.1731,3.179,3.188,3.1996,3.2023,3.2043,3.2047,3.205,3.206,3.2127,3.2137,3.2029,3.2029,3.2028,0,0,3.0869,3.0948,3.0996,3.1132,3.12,3.1285,3.1289,3.1379,3.1444,3.1491,3.1603,3.1662,3.1763,3.1879,3.1934,3.193,3.2096,3.2057,3.2059,3.2067,3.2133,3.2144,3.2153,3.2032,3.2032,3.2031,0,0,3.0935,3.1002,3.1086,3.1153,3.1255,3.1311,3.133,3.144,3.1481,3.1594,3.1631,3.171,3.1866,3.1937,3.1993,3.2086,3.2111,3.2114,3.2137,3.2202,3.221,3.2218,3.2252,3.2264,3.2122,3.2122,3.2122,0,3.0937,3.1065,3.1126,3.1214,3.1273,3.1317,3.1403,3.1467,3.1594,3.1634,3.1627,3.1824,3.1896,3.2029,3.2052,3.2096,3.2122,3.2101,3.2204,3.2212,3.2221,3.2254,3.2267,3.2122,3.2122,3.2122,3.2122,0,3.1064,3.1153,3.1208,3.1327,3.1393,3.148,3.1555,3.1614,3.1647,3.1704,3.1819,3.1906,3.2015,3.205,3.2084,3.2189,3.2183,3.2189,3.2177,3.223,3.2262,3.2276,3.2122,3.2122,3.2122,3.2122,0,0,3.1114,3.1265,3.1284,3.1339,3.1455,3.1526,3.1615,3.172,3.177,3.1856,3.1934,3.2065,3.2071,3.2135,3.2178,3.2234,3.2303,3.2234,3.2238,3.2245,3.2426,3.2421,3.2434,3.232,3.2323,3.2325,3.2417,0,3.1194,3.1353,3.141,3.1542,3.1625,3.1669,3.1747,3.1827,3.1882,3.1963,3.2025,3.2117,3.2117,3.2157,3.2214,3.2282,3.2341,3.2277,3.2395,3.2399,3.2369,3.2451,3.2447,3.253,3.243,3.2433,3.2434,0,3.131,3.1395,3.1535,3.1641,3.1678,3.1747,3.1848,3.1923,3.2016,3.2053,3.2124,3.2163,3.226,3.2241,3.2376,3.2331,3.2383,3.2424,3.2429,3.2443,3.242,3.2469,3.2557,3.257,3.2455,3.2453,3.2452,0,3.1332,3.1483,3.1586,3.1632,3.1758,3.1806,3.1861,3.1952,3.2011,3.21,3.214,3.2239,3.2294,3.2371,3.2436,3.2416,3.2567,3.2553,3.2601,3.26,3.2632,3.2629,3.2731,3.2664,3.2663,3.2663,3.2663,0,3.1417,3.1501,3.1598,3.1661,3.1757,3.1823,3.1916,3.1975,3.2055,3.2132,3.2176,3.2248,3.2329,3.2412,3.2464,3.257,3.2594,3.2628,3.2641,3.2624,3.262,3.266,3.2656,3.2667,3.2666,3.2665,3.2664,0,3.1459,3.1527,3.1642,3.1752,3.1781,3.1847,3.1942,3.2006,3.2063,3.216,3.2187,3.2277,3.2377,3.2449,3.2579,3.2614,3.2727,3.274,3.2695,3.2702,3.2746,3.2741,3.2878,3.29,3.2817,3.2817,3.2818,0,3.1508,3.1573,3.1689,3.1743,3.1798,3.1884,3.1944,3.2012,3.2074,3.2185,3.2236,3.2338,3.2424,3.2582,3.2661,3.276,3.2776,3.2817,3.2792,3.2773,3.2778,3.2773,3.2781,3.2821,3.2822,3.2822,3.2822,0,3.1589,3.162,3.1704,3.1801,3.1871,3.1951,3.2032,3.2074,3.2156,3.2224,3.2325,3.2391,3.2523,3.2625,3.2732,3.2792,3.2822,3.283,3.2846,3.2831,3.2802,3.2819,3.2706,3.2827,3.2826,3.2826,3.2826,3.2825,3.1637,3.1697,3.1788,3.1881,3.1949,3.2023,3.2089,3.2154,3.2239,3.235,3.2385,3.2491,3.2584,3.2731,3.2791,3.2876,3.2875,3.2899,3.2905,3.291,3.291,3.2788,3.2896,3.2896,3.2896,3.2896,3.2896,0,3.1721,3.1781,3.1866,3.1977,3.205,3.207,3.2161,3.2221,3.2313,3.2396,3.2479,3.2597,3.2696,3.2782,3.2885,3.2937,3.2954,3.2962,3.2959,3.2973,3.2905,3.288,3.2947,3.2947,3.2947,3.2947,3.2947,3.2947,3.1773,3.1876,3.1917,3.2055,3.2116,3.2218,3.2268,3.2338,3.2405,3.2533,3.2615,3.267,3.2755,3.2865,3.2958,3.2981,3.3017,3.3023,3.3049,3.2984,3.2978,3.2972,3.2949,3.303,3.303,3.311,3.3111,3.3112]}]]